Tracking 25689 objects as of 7-Jul-2022
HD Live streaming from Space Station
objects crossing your sky now

STARLINK-3700

Track STARLINK-3700 now!
10-day predictions
STARLINK-3700 is classified as:


NORAD ID: 51956
Int'l Code: 2022-025A
Perigee: 545.6 km
Apogee: 548.1 km
Inclination: 53.2 °
Period: 95.4 minutes
Semi major axis: 6917 km
RCS: Unknown
Launch date: March 9, 2022
Source: United States (US)
Launch site: AIR FORCE EASTERN TEST RANGE (AFETR)
aabbcc
Your satellite tracking list
Your tracking list is empty




NASA's NSSDC Master Catalog

Two Line Element Set (TLE):
1 51956U 22025A   22187.91667824 -.00032936  00000-0 -20602-2 0  9997
2 51956  53.2161 292.5780 0001813  50.6910 271.8548 15.08850358  1305
Source of the keplerian elements: AFSPC